Columbus, OH

8:43 AM EDT on October 01, 2016 (GMT -0400)
Ohio State University

Weather History for KOSU - February, 2012

Change the Weather History Date:

Thursday, February 23, 2012

  Actual Average Record
Temperature  
Mean Temperature 41 °F -  
Max Temperature 50 °F 40 °F 55 °F (2016)
Min Temperature 32 °F 25 °F -2 °F (2015)
Degree Days  
Heating Degree Days 24    
Moisture  
Dew Point 34 °F    
Average Humidity 76    
Maximum Humidity 96    
Minimum Humidity 48    
Precipitation  
Precipitation 0.06 in - - ()
Sea Level Pressure  
Sea Level Pressure 29.53 in    
Wind  
Wind Speed 3 mph (ESE)    
Max Wind Speed 13 mph    
Max Gust Speed -    
Visibility 8 miles    
Events Rain    
Averages and records for this station are not official NWS values.
T = Trace of Precipitation, MM = Missing Value Source: NWS Daily Summary

Daily Weather History Graph

Daily Weather History Graph

Search for Another Location

Airport or City:

Trip Planner

Search our weather history database for the weather conditions in past years. The results will help you decide how hot, cold, wet, or windy it might be!

Date:

Astronomy

Feb. 23, 2012 Rise Set
Actual Time 7:15 AM EST 6:16 PM EST
Civil Twilight 6:47 AM EST 6:44 PM EST
Nautical Twilight 6:16 AM EST 7:15 PM EST
Astronomical Twilight 5:44 AM EST 7:47 PM EST
Moon 7:41 AM EST (2/23) 8:21 PM EST (2/23)
Length of Visible Light 11h 56m
Length of Day
11h 01m
Waxing Crescent, 3% of the Moon is Illuminated
Feb 23
Waxing Crescent
Feb 29
First Quarter
Mar 8
Full
Mar 14
Last Quarter
Mar 22
New

Hourly Weather History & Observations

Time (EST) Temp. Windchill Dew Point Humidity Pressure Visibility Wind Dir Wind Speed Gust Speed Precip Events Conditions
12:53 AM 37.9 °F - 34.0 °F 86% 29.49 in 8.0 mi Calm Calm - N/A   Clear
1:53 AM 36.0 °F - 34.0 °F 93% 29.49 in 6.0 mi Calm Calm - N/A   Scattered Clouds
2:53 AM 34.0 °F - 33.1 °F 96% 29.49 in 6.0 mi Calm Calm - N/A   Mostly Cloudy
3:53 AM 33.1 °F - 30.9 °F 92% 29.50 in 5.0 mi Calm Calm - N/A   Clear
4:27 AM 33.8 °F - 30.2 °F 87% 29.50 in 2.5 mi Calm Calm - N/A   Clear
4:35 AM 33.8 °F - 30.2 °F 87% 29.51 in 6.0 mi Calm Calm - N/A   Clear
4:53 AM 32.0 °F 28.7 °F 30.9 °F 96% 29.54 in 5.0 mi SSW 3.5 mph - N/A   Partly Cloudy
5:53 AM 34.0 °F 31.0 °F 33.1 °F 96% 29.57 in 5.0 mi WSW 3.5 mph - N/A   Overcast
6:53 AM 35.1 °F 32.2 °F 32.0 °F 89% 29.58 in 8.0 mi West 3.5 mph - N/A   Scattered Clouds
7:53 AM 35.1 °F 32.2 °F 32.0 °F 89% 29.59 in 7.0 mi NW 3.5 mph - N/A   Clear
8:53 AM 42.1 °F 39.2 °F 35.1 °F 76% 29.61 in 10.0 mi NNW 4.6 mph - N/A   Clear
9:53 AM 46.9 °F - 35.1 °F 63% 29.62 in 10.0 mi Calm Calm - N/A   Clear
10:53 AM 48.9 °F - 35.1 °F 59% 29.62 in 10.0 mi SSE 8.1 mph - N/A   Clear
11:53 AM 50.0 °F - 30.9 °F 48% 29.64 in 10.0 mi SSE 5.8 mph - N/A   Scattered Clouds
12:53 PM 48.9 °F - 32.0 °F 52% 29.65 in 10.0 mi South 8.1 mph - N/A   Overcast
1:53 PM 48.0 °F - 32.0 °F 54% 29.60 in 10.0 mi SSE 12.7 mph - N/A   Overcast
2:53 PM 46.9 °F - 34.0 °F 61% 29.59 in 10.0 mi SE 3.5 mph - 0.00 in   Overcast
3:53 PM 48.9 °F - 35.1 °F 59% 29.56 in 10.0 mi East 6.9 mph - N/A   Scattered Clouds
4:53 PM 48.9 °F - 33.1 °F 54% 29.52 in 10.0 mi East 11.5 mph - N/A   Partly Cloudy
5:53 PM 48.0 °F - 33.1 °F 56% 29.49 in 10.0 mi East 12.7 mph - N/A   Mostly Cloudy
6:53 PM 46.0 °F 41.9 °F 36.0 °F 68% 29.48 in 9.0 mi ENE 8.1 mph - 0.00 in Rain Light Rain
7:53 PM 43.0 °F 36.8 °F 37.9 °F 82% 29.47 in 6.0 mi NE 11.5 mph - 0.03 in Rain Light Rain
8:53 PM 43.0 °F 41.3 °F 39.0 °F 86% 29.45 in 10.0 mi Variable 3.5 mph - 0.03 in   Overcast
9:53 PM 43.0 °F 37.2 °F 37.9 °F 82% 29.45 in 10.0 mi NW 10.4 mph - N/A   Overcast
10:53 PM 43.0 °F 38.8 °F 37.9 °F 82% 29.43 in 10.0 mi ENE 6.9 mph - 0.00 in   Overcast
11:53 PM 43.0 °F 39.5 °F 39.0 °F 86% 29.42 in 10.0 mi NE 5.8 mph - N/A   Overcast